Winner, SD

8:05 AM CDT on April 25, 2017 (GMT -0500)
Winner

Weather History for KICR - May, 2013

Change the Weather History Date:

Tuesday, May 7, 2013

  Actual Average Record
Temperature  
Mean Temperature 63 °F 55 °F  
Max Temperature 75 °F 67 °F 75 °F (2011)
Min Temperature 51 °F 44 °F 39 °F (2008)
Degree Days  
Heating Degree Days 2 10  
Month to date heating degree days 125 78  
Since 1 July heating degree days 6527 6482  
Cooling Degree Days 0 1  
Month to date cooling degree days 0 2  
Year to date cooling degree days 2 4  
Growing Degree Days 12 (Base 50)    
Moisture  
Dew Point 43 °F    
Average Humidity 58    
Maximum Humidity 86    
Minimum Humidity 29    
Precipitation  
Precipitation 0.21 in 0.10 in 0.30 in (2014)
Month to date precipitation 0.21 0.81  
Year to date precipitation 1.67 5.44  
Sea Level Pressure  
Sea Level Pressure 29.93 in    
Wind  
Wind Speed 13 mph (South)    
Max Wind Speed 32 mph    
Max Gust Speed 41 mph    
Visibility 10 miles    
Events Rain , Thunderstorm    
T = Trace of Precipitation, MM = Missing Value Source: NWS Daily Summary

Daily Weather History Graph

Daily Weather History Graph

Search for Another Location

Airport or City:

Trip Planner

Search our weather history database for the weather conditions in past years. The results will help you decide how hot, cold, wet, or windy it might be!

Date:

Astronomy

May. 07, 2013 Rise Set
Actual Time 6:23 AM CDT 8:48 PM CDT
Civil Twilight 5:51 AM CDT 9:20 PM CDT
Nautical Twilight 5:12 AM CDT 10:00 PM CDT
Astronomical Twilight 4:27 AM CDT 10:45 PM CDT
Moon 5:02 AM CDT (5/7) 6:47 PM CDT (5/7)
Length of Visible Light 15h 28m
Length of Day
14h 24m
Waning Crescent, 5% of the Moon is Illuminated
May 7
Waning Crescent
May 9
New
May 17
First Quarter
May 24
Full
May 31
Last Quarter

Hourly Weather History & Observations

Time (CDT) Temp. Dew Point Humidity Pressure Visibility Wind Dir Wind Speed Gust Speed Precip Events Conditions
12:53 AM 55.9 °F 37.9 °F 51% 29.98 in 10.0 mi SSE 13.8 mph - N/A   Overcast
1:53 AM 53.1 °F 37.9 °F 57% 29.98 in 10.0 mi SSE 10.4 mph - N/A   Partly Cloudy
2:53 AM 52.0 °F 39.0 °F 61% 29.97 in 10.0 mi South 13.8 mph - N/A   Mostly Cloudy
3:53 AM 52.0 °F 37.9 °F 59% 29.95 in 10.0 mi South 17.3 mph - N/A   Clear
4:53 AM 55.0 °F 37.0 °F 51% 29.94 in 10.0 mi South 19.6 mph - N/A   Clear
5:53 AM 55.0 °F 37.0 °F 51% 29.94 in 10.0 mi SSW 15.0 mph - N/A   Partly Cloudy
6:53 AM 54.0 °F 37.0 °F 53% 29.95 in 10.0 mi South 11.5 mph - N/A   Mostly Cloudy
7:53 AM 55.0 °F 39.0 °F 55% 29.98 in 10.0 mi Calm Calm - N/A   Overcast
8:53 AM 60.1 °F 42.1 °F 51% 29.98 in 10.0 mi SW 8.1 mph - N/A   Scattered Clouds
9:53 AM 64.0 °F 44.1 °F 48% 29.96 in 10.0 mi WSW 8.1 mph - N/A   Clear
10:53 AM 68.0 °F 43.0 °F 40% 29.95 in 10.0 mi SSW 6.9 mph - N/A   Clear
11:53 AM 70.0 °F 43.0 °F 38% 29.96 in 10.0 mi SSE 9.2 mph - N/A   Partly Cloudy
12:53 PM 71.1 °F 41.0 °F 34% 29.94 in 10.0 mi SSE 12.7 mph - N/A   Clear
1:53 PM 73.0 °F 41.0 °F 31% 29.94 in 10.0 mi South 16.1 mph 24.2 mph N/A   Clear
2:53 PM 73.0 °F 39.0 °F 29% 29.92 in 10.0 mi SE 20.7 mph 32.2 mph N/A   Clear
3:53 PM 72.0 °F 41.0 °F 33% 29.91 in 10.0 mi SE 12.7 mph 25.3 mph N/A   Clear
4:53 PM 73.0 °F 39.9 °F 30% 29.89 in 10.0 mi SSE 8.1 mph 19.6 mph N/A   Clear
5:53 PM 70.0 °F 44.1 °F 39% 29.88 in 10.0 mi SE 13.8 mph 20.7 mph N/A   Overcast
6:53 PM 68.0 °F 46.0 °F 45% 29.87 in 10.0 mi SE 13.8 mph - N/A   Partly Cloudy
7:31 PM 66.2 °F 46.4 °F 49% 29.90 in 10.0 mi SE 11.5 mph - N/A Thunderstorm Mostly Cloudy
7:46 PM 66.2 °F 46.4 °F 49% 29.90 in 10.0 mi SSE 11.5 mph - N/A   Mostly Cloudy
7:53 PM 64.9 °F 46.9 °F 52% 29.88 in 10.0 mi SE 11.5 mph - N/A   Overcast
8:53 PM 57.0 °F 48.9 °F 74% 29.93 in 8.0 mi WNW 11.5 mph 21.9 mph 0.03 in Rain Light Rain
9:28 PM 55.4 °F 51.8 °F 88% 29.93 in 8.0 mi West 9.2 mph - 0.05 in Rain , Thunderstorm Rain
9:42 PM 55.4 °F 51.8 °F 88% 29.93 in 7.0 mi WSW 8.1 mph - 0.08 in Rain Rain
9:53 PM 55.0 °F 51.1 °F 86% 29.92 in 5.0 mi SSW 10.4 mph - 0.12 in Rain Rain
10:53 PM 57.0 °F 52.0 °F 83% 29.87 in 10.0 mi South 17.3 mph 21.9 mph 0.06 in   Overcast
11:53 PM 57.9 °F 46.9 °F 67% 29.84 in 10.0 mi SSE 18.4 mph 29.9 mph 0.00 in   Scattered Clouds